ATLAS 5 CENTAUR DEB, 43959

Orbit data source: Space-Track

ATLAS 5 CENTAUR DEB, 43959 is space debris in HEO originally from a launch on Wed, 17 Sep 2014 UTC launched from the Air Force Eastern Test Range (AFETR). Debris objects in space refer to the collection of defunct objects orbiting the Earth. Examples of debris include non-operational satellites, rocket bodies, and fragments generated from explosions, collisions, or faulty payload assembly.

Loading next visibility...
Identifier
43959, 2014-055N
Orbit
HEO
Country
Flag of USUS
Related business
Flag of USUnited Launch Alliance/Lockheed Martin (US)
Manufacturer
Unknown
Mission
Spacecraft
Bus & Motor
Unknown
Mass
Unknown
Launch date (UTC)
2014-09-17 (11 years ago)
Launch vehicle
Unknown
Launch site
Air Force Eastern Test Range (AFETR)
Object type
Payload
Rocket body
Debris
Shape & HBR
Unknown shape, 1.1 m
Radar Cross Section
Small (<0.1 m²)

Expand to show TLE details & history
Last TLE update: 2 days ago

TLE from 2 days ago
0 ATLAS 5 CENTAUR DEB
1 43959U 14055N   25339.74722867 -.00000037  00000-0  00000-0 0  9991
2 43959  19.6665 156.1467 5098738 140.0126 271.7729  1.81440516 48152
Epoch: 2025-12-05T17:56Z
TLE epoch observation values (Epoch: 2025-12-05T17:56:00.557Z)
Latitude
-0.0001°
Longitude
172.40136°
Altitude
28,052.821 km
Speed
3.019 km/s
True Right ascension
10h 24m 45s
True Declination
0° 00' 00"
Sunlit
Object was in daylight at epoch
Visualization orbit readout
Latitude
Unknown
Longitude
Unknown
Altitude
Unknown
Speed
Unknown
Apparent Right ascension
Unknown
Apparent Declination
Unknown
Sunlit
N/A
Visualization observer readout
Local Sidereal Time
12:30:27
Azimuth
Unknown
Elevation
Unknown
Doppler factor
Unknown
Orbital elements
Apogee altitude
36,498.183 km
Perigee altitude
7,540.118 km
Semi-major axis
28,397.288 km
Eccentricity
0.50987
Inclination
19.6665°
RAAN
156.1467°
Arg. of periapsis
140.0126°
True anomaly
220.07163°
Mean anomaly
271.7729°
Eccentric anomaly
245.24403°
Mean motion
0.45355 °/min
Orbital period
793.73 mins
BSTAR
0
Loading maneuver chart data...
Computing Atmospheric mass density...

Documentation

Showing up to 5 results
|